#timestamp,LO_Frequency,Hit,StdDev 
1570928415.8,286047006.2,N
1570928435.7,286047006.1,N
1570928455.5,286047006.8,N
1570928475.3,286047004.6,N
1570928495.2,286047006.7,N
1570928515.9,286047004.6,N
1570928535.7,286047006.9,N
1570928555.6,286047011.8,Y
1570928575.4,286047001.7,P
1570928595.3,286047003.4,N
1570928615.1,286047001.6,N
1570928616.0,286047001.6,N
1570928635.8,286047005.9,Y
1570928655.7,286047002.8,P
1570928675.5,286047000.8,P
1570928695.3,286047002.2,N
1570928715.2,286047001.6,N
1570928735.0,286046998.5,N
1570928735.9,286046998.5,N
1570928755.8,286047004.3,N
1570928775.6,286047002.0,N
1570928795.4,286047000.8,N
1570928815.3,286047000.5,N
1570928835.1,286046998.5,N
1570928855.8,286047001.0,N
1570928875.7,286046996.9,N
1570928895.5,286046996.5,N
1570928915.4,286046998.2,N
1570928935.2,286046998.5,N
1570928955.0,286046997.2,N
1570928955.9,286046997.2,N
1570928975.8,286046993.4,N
1570928995.6,286046996.9,N
1570929015.4,286046995.1,N
1570929035.3,286046997.2,N
1570929055.1,286046995.4,N
1570929075.9,286046993.6,N
1570929095.7,286046995.1,N
1570929115.5,286046993.4,N
1570929135.4,286046993.4,N
1570929155.2,286046996.0,N
1570929175.0,286046992.5,N
1570929175.9,286046992.5,N
1570929195.8,286046994.5,N
1570929215.6,286046992.4,N
1570929235.5,286046992.6,N
1570929255.3,286046993.9,N
1570929275.1,286046996.3,N
1570929295.9,286046993.6,N
1570929315.7,286046997.6,N
1570929335.6,286046994.0,N
1570929355.4,286046995.4,N
1570929375.2,286046996.0,N
1570929395.1,286046997.5,N
1570929396.0,286046997.5,N
1570929415.8,286046998.3,N
1570929435.6,286047000.7,N
1570929455.5,286047001.0,N
1570929475.3,286047000.5,N
1570929495.1,286047000.5,N
1570929515.9,286046997.2,N
1570929535.7,286046994.9,N
1570929555.6,286046996.7,N
1570929575.4,286046996.6,N
1570929595.2,286046999.1,N
1570929615.1,286046999.6,N
1570929616.0,286046999.6,N
1570929635.8,286046997.7,N
1570929655.7,286046999.8,N
1570929675.5,286047002.2,N
1570929695.3,286047003.0,N
1570929715.2,286047005.4,N
1570929735.9,286047006.1,N
1570929755.7,286047010.3,N
1570929775.6,286047008.7,N
1570929795.4,286047010.6,N
1570929815.2,286047007.1,N
1570929835.1,286047005.9,N
1570929836.0,286047005.9,N
1570929855.8,286047003.5,N
1570929875.7,286047003.5,N
1570929895.5,286047007.0,N
1570929915.3,286047004.7,N
1570929935.2,286047004.6,N
1570929955.0,286047008.8,N
1570929955.9,286047008.8,N
1570929975.8,286047006.8,N
1570929995.6,286047002.9,N
1570930045.5,286047003.1,E
1570930055.4,286046999.7,N
1570930075.2,286046998.9,P
1570930095.0,286047000.1,N
1570930096.0,286047000.1,N
1570930115.8,286047002.4,Y
1570930135.6,286047002.8,P
1570930155.5,286047003.3,N
1570930175.3,286047001.3,N
1570930195.1,286047002.4,N
1570930215.9,286047000.4,N
1570930235.7,286047001.1,N
1570930255.6,286047002.8,N
1570930275.4,286047003.6,N
1570930295.2,286047005.6,Y
1570930315.1,286047000.2,P
1570930316.0,286047000.2,N
1570930335.8,286047001.9,N
1570930355.6,286047004.3,Y
1570930375.5,286046998.4,P
1570930395.3,286047000.9,N
1570930415.2,286046998.8,N
1570930435.9,286047000.1,N
1570930455.7,286047003.7,Y
1570930475.6,286047005.5,P
1570930495.4,286047004.9,N
1570930515.2,286047006.4,N
1570930535.1,286047008.9,Y
1570930536.0,286047008.9,P
1570930555.8,286047000.1,N
1570930575.7,286047004.3,N
1570930595.5,286047001.7,N
1570930615.3,286047002.8,N
1570930635.2,286047002.2,N
1570930655.0,286047002.8,N
1570930655.9,286047002.8,N
1570930675.8,286047001.5,N
1570930695.6,286047005.9,N
1570930715.4,286047005.6,N
1570930735.3,286047005.1,N
1570930755.1,286047007.5,Y
1570930775.8,286047002.7,P
1570930795.7,286047000.6,N
1570930815.5,286046998.8,N
1570930835.4,286047002.5,N
1570930855.2,286047001.8,N
1570930875.0,286047004.1,N
1570930906.0,286047004.2,E
1570930915.9,286047001.6,N
1570930935.7,286046998.7,P
1570930955.6,286047001.2,N
1570930975.4,286047004.0,Y
1570930995.2,286047001.4,P
1570931015.1,286047000.1,N
1570931016.0,286047000.1,N
1570931035.8,286047000.2,N
1570931055.7,286047003.8,Y
1570931075.5,286046999.3,P
1570931095.3,286047002.1,P
1570931115.2,286046998.1,N
1570931135.0,286047002.0,N
1570931135.9,286047002.0,N
1570931155.7,286047005.9,Y
1570931175.6,286047003.7,P
1570931195.4,286047006.0,P
1570931215.3,286047004.1,N
1570931235.1,286047003.0,N
1570931236.0,286047003.0,N
1570931255.8,286047004.0,N
1570931275.7,286047003.0,N
1570931295.5,286046999.8,N
1570931315.3,286047004.0,N
1570931335.2,286047002.5,N
1570931355.0,286046997.3,N
1570931355.9,286046997.3,N
1570931375.8,286046996.9,N
1570931395.6,286046995.4,N
1570931415.4,286046999.2,N
1570931435.3,286046997.2,N
1570931455.1,286046996.8,N
1570931475.8,286046998.0,N
1570931495.7,286046993.6,N
1570931515.5,286046994.5,N
1570931535.4,286046992.7,N
1570931555.2,286046991.5,N
1570931575.0,286046989.8,N
1570931575.9,286046989.8,N
1570931595.8,286046992.8,N
1570931615.6,286046989.1,N
1570931635.4,286046990.4,N
1570931655.3,286046991.0,N
1570931675.1,286046995.3,N
1570931695.9,286046995.9,N
1570931715.7,286046990.3,N
1570931735.5,286046989.5,N
1570931755.4,286046986.3,N
1570931775.2,286046989.0,N
1570931795.0,286046985.4,N
1570931796.0,286046985.4,N
1570931815.8,286046982.4,Y
1570931835.6,286046987.6,P
1570931855.5,286046988.0,P
1570931875.3,286046988.0,P
1570931895.1,286046988.2,Y
1570931915.9,286046997.7,P
1570931935.7,286046998.4,N
1570931955.6,286046998.0,N
1570931975.4,286046996.2,N
1570931995.2,286046994.3,N
